Weather History for Muskogee, OK

Change the Weather History Date:

Tuesday, January 21, 2014

  Actual Average Record
Temperature  
Mean Temperature 30 °F -  
Max Temperature 41 °F 47 °F 73 °F (2005)
Min Temperature 18 °F 27 °F 8 °F (2011)
Degree Days  
Heating Degree Days 36    
Moisture  
Dew Point 6 °F    
Average Humidity 45    
Maximum Humidity 78    
Minimum Humidity 27    
Precipitation  
Precipitation 0.00 in - - ()
Sea Level Pressure  
Sea Level Pressure 30.37 in    
Wind  
Wind Speed 15 mph (North)    
Max Wind Speed 24 mph    
Max Gust Speed 37 mph    
Visibility 10 miles    
Events      
Averages and records for this station are not official NWS values.
T = Trace of Precipitation, MM = Missing Value Source: NWS Daily Summary

Daily Weather History Graph

Daily Weather History Graph

Search for Another Location

Airport:

Trip Planner

Search our weather history database for the weather conditions in past years. The results will help you decide how hot, cold, wet, or windy it might be!

Date:

Astronomy

Jan. 21, 2014 Rise Set
Actual Time 7:28 AM CST 5:37 PM CST
Civil Twilight 7:00 AM CST 6:05 PM CST
Nautical Twilight 6:29 AM CST 6:36 PM CST
Astronomical Twilight 5:59 AM CST 7:06 PM CST
Moon 10:58 PM CST (1/21) 10:10 AM CST (1/21)
Length of Visible Light 11h 04m
Length of Day
10h 09m
Waning Gibbous, 74% of the Moon is Illuminated
Jan 21
Waning Gibbous
Jan 23
Last Quarter
Jan 30
New
Feb 6
First Quarter
Feb 14
Full

Hourly Weather History & Observations

Time (CST) Temp. Windchill Dew Point Humidity Pressure Visibility Wind Dir Wind Speed Gust Speed Precip Events Conditions
12:53 AM 41.0 °F 32.8 °F 19.0 °F 41% 30.27 in 10.0 mi NNW 16.1 mph 27.6 mph N/A   Clear
1:53 AM 37.0 °F 26.2 °F 14.0 °F 39% 30.30 in 10.0 mi North 21.9 mph 27.6 mph N/A   Clear
2:53 AM 33.1 °F 20.9 °F 14.0 °F 46% 30.33 in 10.0 mi North 21.9 mph 28.8 mph N/A   Clear
3:53 AM 30.0 °F 16.3 °F 12.9 °F 49% 30.37 in 10.0 mi North 24.2 mph 36.8 mph N/A   Clear
4:53 AM 25.0 °F 9.5 °F 7.0 °F 46% 30.40 in 10.0 mi North 24.2 mph 32.2 mph N/A   Clear
5:53 AM 21.9 °F 6.2 °F 6.1 °F 51% 30.43 in 10.0 mi NNW 21.9 mph 32.2 mph N/A   Clear
6:53 AM 19.9 °F 5.2 °F 6.1 °F 55% 30.47 in 10.0 mi North 17.3 mph - N/A   Clear
7:53 AM 18.0 °F 1.3 °F 5.0 °F 57% 30.49 in 10.0 mi North 20.7 mph 31.1 mph N/A   Clear
8:53 AM 19.0 °F 2.4 °F 3.9 °F 52% 30.51 in 10.0 mi North 21.9 mph 28.8 mph N/A   Clear
9:53 AM 21.0 °F 7.1 °F 3.9 °F 48% 30.51 in 10.0 mi North 16.1 mph - N/A   Clear
10:53 AM 24.1 °F 10.6 °F 3.9 °F 42% 30.51 in 10.0 mi North 17.3 mph 23.0 mph N/A   Clear
11:53 AM 25.0 °F 11.7 °F 3.0 °F 39% 30.49 in 10.0 mi North 17.3 mph 23.0 mph N/A   Clear
12:53 PM 27.0 °F 18.0 °F 1.0 °F 33% 30.44 in 10.0 mi North 9.2 mph - N/A   Clear
1:53 PM 28.9 °F 20.4 °F 1.0 °F 30% 30.38 in 10.0 mi North 9.2 mph - N/A   Clear
2:53 PM 30.0 °F 22.4 °F -0.0 °F 28% 30.36 in 10.0 mi NNE 8.1 mph - N/A   Clear
3:53 PM 30.0 °F - -0.0 °F 28% 30.32 in 10.0 mi Calm Calm - N/A   Clear
4:53 PM 30.0 °F 26.5 °F -0.9 °F 27% 30.31 in 10.0 mi NNW 3.5 mph - N/A   Clear
5:53 PM 27.0 °F - 1.0 °F 33% 30.30 in 10.0 mi Calm Calm - N/A   Clear
6:53 PM 25.0 °F - 3.0 °F 39% 30.29 in 10.0 mi Calm Calm - N/A   Clear
7:53 PM 21.9 °F 17.2 °F 5.0 °F 48% 30.27 in 10.0 mi SE 3.5 mph - N/A   Clear
8:53 PM 21.9 °F - 3.9 °F 46% 30.28 in 10.0 mi Calm Calm - N/A   Clear
9:53 PM 21.0 °F - 8.1 °F 57% 30.27 in 10.0 mi Calm Calm - N/A   Clear
10:53 PM 18.0 °F 8.7 °F 10.0 °F 71% 30.24 in 10.0 mi South 6.9 mph - N/A   Clear
11:53 PM 18.0 °F 11.1 °F 12.0 °F 78% 30.22 in 10.0 mi SSE 4.6 mph - N/A   Clear